Time,TemperatureF,DewpointF,PressureIn,WindDirection,WindDirectionDegrees,WindSpeedMPH,WindSpeedGustMPH,Humidity,HourlyPrecipIn,Conditions,Clouds,dailyrainin,SoftwareType,DateUTC
2013-09-17 00:01:00,46.2,38.4,30.38,ENE,68,0.0,0.0,74,0.00,,---,0.00,VWS V14.01,2013-09-17 04:01:00,
2013-09-17 00:02:00,46.2,38.4,30.38,ENE,68,0.0,0.0,74,0.00,,---,0.00,VWS V14.01,2013-09-17 04:02:00,
2013-09-17 00:03:00,46.2,38.4,30.38,ENE,68,0.0,0.0,74,0.00,,---,0.00,VWS V14.01,2013-09-17 04:03:00,
2013-09-17 00:04:00,46.0,38.2,30.38,ENE,68,0.0,0.0,74,0.00,,---,0.00,VWS V14.01,2013-09-17 04:04:00,
2013-09-17 00:06:00,46.0,38.2,30.38,ENE,68,0.0,0.0,74,0.00,,---,0.00,VWS V14.01,2013-09-17 04:06:00,
2013-09-17 00:11:00,45.6,37.8,30.38,ENE,68,0.0,0.0,74,0.00,,---,0.00,VWS V14.01,2013-09-17 04:11:00,
2013-09-17 00:12:00,45.6,37.8,30.38,ENE,68,0.0,0.0,74,0.00,,---,0.00,VWS V14.01,2013-09-17 04:12:00,
2013-09-17 00:17:00,45.5,37.7,30.38,ENE,68,0.0,0.0,74,0.00,,---,0.00,VWS V14.01,2013-09-17 04:17:00,
2013-09-17 00:22:00,45.3,37.9,30.38,ENE,68,0.0,0.0,75,0.00,,---,0.00,VWS V14.01,2013-09-17 04:22:00,
2013-09-17 00:27:00,45.1,37.7,30.38,ENE,68,0.0,0.0,75,0.00,,---,0.00,VWS V14.01,2013-09-17 04:27:00,
2013-09-17 00:32:00,44.9,37.5,30.38,ENE,68,0.0,0.0,75,0.00,,---,0.00,VWS V14.01,2013-09-17 04:32:00,
2013-09-17 00:37:00,44.9,37.5,30.39,ENE,68,0.0,0.0,75,0.00,,---,0.00,VWS V14.01,2013-09-17 04:37:00,
2013-09-17 00:42:00,44.7,37.3,30.38,ENE,68,0.0,0.0,75,0.00,,---,0.00,VWS V14.01,2013-09-17 04:42:00,
2013-09-17 00:47:00,44.4,37.3,30.38,ENE,68,0.0,0.0,76,0.00,,---,0.00,VWS V14.01,2013-09-17 04:47:00,
2013-09-17 00:52:00,44.4,37.3,30.38,ENE,68,0.0,0.0,76,0.00,,---,0.00,VWS V14.01,2013-09-17 04:52:00,
2013-09-17 00:57:00,44.2,37.1,30.38,ENE,68,0.0,0.0,76,0.00,,---,0.00,VWS V14.01,2013-09-17 04:57:00,
2013-09-17 01:02:00,44.0,36.9,30.38,ENE,68,0.0,0.0,76,0.00,,---,0.00,VWS V14.01,2013-09-17 05:02:00,
2013-09-17 01:07:00,43.8,37.1,30.38,ENE,68,0.0,0.0,77,0.00,,---,0.00,VWS V14.01,2013-09-17 05:07:00,
2013-09-17 01:12:00,43.5,36.8,30.38,ENE,68,0.0,0.0,77,0.00,,---,0.00,VWS V14.01,2013-09-17 05:12:00,
2013-09-17 01:17:00,43.5,36.8,30.38,ENE,68,0.0,0.0,77,0.00,,---,0.00,VWS V14.01,2013-09-17 05:17:00,
2013-09-17 01:22:00,43.5,36.8,30.38,ENE,68,0.0,0.0,77,0.00,,---,0.00,VWS V14.01,2013-09-17 05:22:00,
2013-09-17 01:27:00,43.1,36.4,30.38,ENE,68,0.0,0.0,77,0.00,,---,0.00,VWS V14.01,2013-09-17 05:27:00,
2013-09-17 01:32:00,42.9,36.5,30.38,ENE,68,0.0,0.0,78,0.00,,---,0.00,VWS V14.01,2013-09-17 05:32:00,
2013-09-17 01:37:00,42.9,36.5,30.38,ENE,68,0.0,0.0,78,0.00,,---,0.00,VWS V14.01,2013-09-17 05:37:00,
2013-09-17 01:42:00,42.6,36.2,30.38,ENE,68,0.0,0.0,78,0.00,,---,0.00,VWS V14.01,2013-09-17 05:42:00,
2013-09-17 01:47:00,42.4,36.0,30.38,ENE,68,0.0,0.0,78,0.00,,---,0.00,VWS V14.01,2013-09-17 05:47:00,
2013-09-17 01:52:00,42.4,36.0,30.38,ENE,68,0.0,0.0,78,0.00,,---,0.00,VWS V14.01,2013-09-17 05:52:00,
2013-09-17 01:57:00,42.2,36.2,30.38,ENE,68,0.0,0.0,79,0.00,,---,0.00,VWS V14.01,2013-09-17 05:57:00,
2013-09-17 02:02:00,42.0,36.0,30.38,ENE,68,0.0,0.0,79,0.00,,---,0.00,VWS V14.01,2013-09-17 06:02:00,
2013-09-17 02:07:00,42.0,36.0,30.38,ENE,68,0.0,0.0,79,0.00,,---,0.00,VWS V14.01,2013-09-17 06:07:00,
2013-09-17 02:12:00,42.0,36.0,30.39,ENE,68,0.0,0.0,79,0.00,,---,0.00,VWS V14.01,2013-09-17 06:12:00,
2013-09-17 02:17:00,41.9,35.9,30.39,ENE,68,0.0,0.0,79,0.00,,---,0.00,VWS V14.01,2013-09-17 06:17:00,
2013-09-17 02:22:00,41.9,35.9,30.38,ENE,68,0.0,0.0,79,0.00,,---,0.00,VWS V14.01,2013-09-17 06:22:00,
2013-09-17 02:27:00,41.9,36.2,30.39,ENE,68,0.0,0.0,80,0.00,,---,0.00,VWS V14.01,2013-09-17 06:27:00,
2013-09-17 03:02:00,40.6,35.2,30.38,ENE,68,0.0,0.0,81,0.00,,---,0.00,VWS V14.01,2013-09-17 07:02:00,
2013-09-17 03:07:00,40.6,35.2,30.38,ENE,68,0.0,0.0,81,0.00,,---,0.00,VWS V14.01,2013-09-17 07:07:00,
2013-09-17 03:12:00,40.6,35.2,30.38,ENE,68,0.0,0.0,81,0.00,,---,0.00,VWS V14.01,2013-09-17 07:12:00,
2013-09-17 03:17:00,40.6,35.2,30.38,ENE,68,0.0,0.0,81,0.00,,---,0.00,VWS V14.01,2013-09-17 07:17:00,
2013-09-17 03:22:00,40.2,34.8,30.38,ENE,68,0.0,0.0,81,0.00,,---,0.00,VWS V14.01,2013-09-17 07:22:00,
2013-09-17 03:27:00,40.2,34.8,30.39,ENE,68,0.0,0.0,81,0.00,,---,0.00,VWS V14.01,2013-09-17 07:27:00,
2013-09-17 03:32:00,40.2,34.8,30.39,ENE,68,0.0,0.0,81,0.00,,---,0.00,VWS V14.01,2013-09-17 07:32:00,
2013-09-17 03:37:00,40.2,34.8,30.39,ENE,68,0.0,0.0,81,0.00,,---,0.00,VWS V14.01,2013-09-17 07:37:00,
2013-09-17 03:42:00,40.1,34.8,30.39,ENE,68,0.0,0.0,81,0.00,,---,0.00,VWS V14.01,2013-09-17 07:42:00,
2013-09-17 03:47:00,40.1,34.8,30.38,ENE,68,0.0,0.0,81,0.00,,---,0.00,VWS V14.01,2013-09-17 07:47:00,
2013-09-17 03:52:00,40.1,35.1,30.38,ENE,68,0.0,0.0,82,0.00,,---,0.00,VWS V14.01,2013-09-17 07:52:00,
2013-09-17 03:57:00,39.9,34.9,30.38,ENE,68,0.0,0.0,82,0.00,,---,0.00,VWS V14.01,2013-09-17 07:57:00,
2013-09-17 04:02:00,39.9,34.9,30.38,ENE,68,0.0,0.0,82,0.00,,---,0.00,VWS V14.01,2013-09-17 08:02:00,
2013-09-17 04:07:00,39.9,34.9,30.38,ENE,68,0.0,0.0,82,0.00,,---,0.00,VWS V14.01,2013-09-17 08:07:00,
2013-09-17 04:12:00,39.9,34.9,30.38,ENE,68,0.0,0.0,82,0.00,,---,0.00,VWS V14.01,2013-09-17 08:12:00,
2013-09-17 04:17:00,39.9,34.9,30.38,ENE,68,0.0,0.0,82,0.00,,---,0.00,VWS V14.01,2013-09-17 08:17:00,
2013-09-17 04:22:00,39.7,34.7,30.38,ENE,68,0.0,0.0,82,0.00,,---,0.00,VWS V14.01,2013-09-17 08:22:00,
2013-09-17 04:27:00,39.0,34.0,30.39,ENE,68,0.0,0.0,82,0.00,,---,0.00,VWS V14.01,2013-09-17 08:27:00,
2013-09-17 04:32:00,39.0,34.0,30.38,ENE,68,0.0,0.0,82,0.00,,---,0.00,VWS V14.01,2013-09-17 08:32:00,
2013-09-17 04:37:00,39.0,34.0,30.38,ENE,68,0.0,0.0,82,0.00,,---,0.00,VWS V14.01,2013-09-17 08:37:00,
2013-09-17 04:42:00,39.0,34.0,30.38,ENE,68,0.0,0.0,82,0.00,,---,0.00,VWS V14.01,2013-09-17 08:42:00,
2013-09-17 04:47:00,39.0,34.0,30.38,ENE,68,0.0,0.0,82,0.00,,---,0.00,VWS V14.01,2013-09-17 08:47:00,
2013-09-17 04:52:00,39.0,34.0,30.38,ENE,68,0.0,0.0,82,0.00,,---,0.00,VWS V14.01,2013-09-17 08:52:00,
2013-09-17 04:57:00,38.8,33.8,30.39,ENE,68,0.0,0.0,82,0.00,,---,0.00,VWS V14.01,2013-09-17 08:57:00,
2013-09-17 05:02:00,38.8,33.8,30.39,ENE,68,0.0,0.0,82,0.00,,---,0.00,VWS V14.01,2013-09-17 09:02:00,
2013-09-17 05:07:00,38.8,33.8,30.39,ENE,68,0.0,0.0,82,0.00,,---,0.00,VWS V14.01,2013-09-17 09:07:00,
2013-09-17 05:12:00,38.8,34.1,30.38,ENE,68,0.0,0.0,83,0.00,,---,0.00,VWS V14.01,2013-09-17 09:12:00,
2013-09-17 05:17:00,38.8,34.1,30.38,ENE,68,0.0,0.0,83,0.00,,---,0.00,VWS V14.01,2013-09-17 09:17:00,
2013-09-17 05:22:00,38.8,34.1,30.39,ENE,68,0.0,0.0,83,0.00,,---,0.00,VWS V14.01,2013-09-17 09:22:00,
2013-09-17 05:27:00,38.6,33.9,30.38,ENE,68,0.0,0.0,83,0.00,,---,0.00,VWS V14.01,2013-09-17 09:27:00,
2013-09-17 05:32:00,38.6,33.9,30.38,ENE,68,0.0,0.0,83,0.00,,---,0.00,VWS V14.01,2013-09-17 09:32:00,
2013-09-17 05:37:00,38.4,33.7,30.39,ENE,68,0.0,0.0,83,0.00,,---,0.00,VWS V14.01,2013-09-17 09:37:00,
2013-09-17 05:42:00,38.4,33.7,30.39,ENE,68,0.0,0.0,83,0.00,,---,0.00,VWS V14.01,2013-09-17 09:42:00,
2013-09-17 05:47:00,38.4,33.7,30.39,ENE,68,0.0,0.0,83,0.00,,---,0.00,VWS V14.01,2013-09-17 09:47:00,
2013-09-17 05:53:00,38.4,33.7,30.38,ENE,68,0.0,0.0,83,0.00,,---,0.00,VWS V14.01,2013-09-17 09:53:00,
2013-09-17 05:58:00,38.4,33.7,30.39,ENE,68,0.0,0.0,83,0.00,,---,0.00,VWS V14.01,2013-09-17 09:58:00,
2013-09-17 06:03:00,38.3,-3.9,30.39,ENE,68,0.0,0.0,83,0.00,,---,0.00,VWS V14.01,2013-09-17 10:03:00,
2013-09-17 06:08:00,38.3,-3.9,30.39,ENE,68,0.0,0.0,83,0.00,,---,0.00,VWS V14.01,2013-09-17 10:08:00,
2013-09-17 06:14:00,38.1,33.4,30.39,ENE,68,0.0,0.0,83,0.00,,---,0.00,VWS V14.01,2013-09-17 10:14:00,
2013-09-17 06:19:00,37.9,33.2,30.39,ENE,68,0.0,0.0,83,0.00,,---,0.00,VWS V14.01,2013-09-17 10:19:00,
2013-09-17 06:24:00,37.9,33.2,30.39,ENE,68,0.0,0.0,83,0.00,,---,0.00,VWS V14.01,2013-09-17 10:24:00,
2013-09-17 06:29:00,37.9,33.2,30.39,ENE,68,0.0,0.0,83,0.00,,---,0.00,VWS V14.01,2013-09-17 10:29:00,
2013-09-17 06:34:00,37.9,33.2,30.39,ENE,68,0.0,0.0,83,0.00,,---,0.00,VWS V14.01,2013-09-17 10:34:00,
2013-09-17 06:39:00,37.9,33.2,30.40,ENE,68,0.0,0.0,83,0.00,,---,0.00,VWS V14.01,2013-09-17 10:39:00,
2013-09-17 06:44:00,37.9,33.2,30.39,ENE,68,0.0,0.0,83,0.00,,---,0.00,VWS V14.01,2013-09-17 10:44:00,
2013-09-17 06:49:00,37.9,33.5,30.39,ENE,68,0.0,0.0,84,0.00,,---,0.00,VWS V14.01,2013-09-17 10:49:00,
2013-09-17 06:54:00,37.9,33.5,30.39,ENE,68,0.0,0.0,84,0.00,,---,0.00,VWS V14.01,2013-09-17 10:54:00,
2013-09-17 06:59:00,37.9,33.5,30.39,ENE,68,0.0,0.0,84,0.00,,---,0.00,VWS V14.01,2013-09-17 10:59:00,
2013-09-17 07:04:00,37.9,33.5,30.39,ENE,68,0.0,0.0,84,0.00,,---,0.00,VWS V14.01,2013-09-17 11:04:00,
2013-09-17 07:09:00,37.9,33.5,30.39,ENE,68,0.0,0.0,84,0.00,,---,0.00,VWS V14.01,2013-09-17 11:09:00,
2013-09-17 07:14:00,37.9,33.5,30.39,NE,45,0.0,0.0,84,0.00,,---,0.00,VWS V14.01,2013-09-17 11:14:00,
2013-09-17 07:19:00,37.9,33.5,30.39,ENE,68,0.0,0.0,84,0.00,,---,0.00,VWS V14.01,2013-09-17 11:19:00,
2013-09-17 07:24:00,37.9,33.5,30.39,NE,45,0.0,0.0,84,0.00,,---,0.00,VWS V14.01,2013-09-17 11:24:00,
2013-09-17 07:29:00,37.9,33.5,30.39,NE,45,0.0,0.0,84,0.00,,---,0.00,VWS V14.01,2013-09-17 11:29:00,
2013-09-17 07:34:00,37.9,33.5,30.39,NE,45,0.0,0.0,84,0.00,,---,0.00,VWS V14.01,2013-09-17 11:34:00,
2013-09-17 07:39:00,37.9,33.5,30.39,NE,45,0.0,0.0,84,0.00,,---,0.00,VWS V14.01,2013-09-17 11:39:00,
2013-09-17 07:44:00,38.1,33.7,30.39,NE,45,0.0,0.0,84,0.00,,---,0.00,VWS V14.01,2013-09-17 11:44:00,
2013-09-17 07:49:00,38.1,33.7,30.40,NE,45,0.0,0.0,84,0.00,,---,0.00,VWS V14.01,2013-09-17 11:49:00,
2013-09-17 07:54:00,38.1,34.0,30.40,NE,45,0.0,0.0,85,0.00,,---,0.00,VWS V14.01,2013-09-17 11:54:00,
2013-09-17 07:59:00,38.4,34.3,30.40,NE,45,0.0,0.0,85,0.00,,---,0.00,VWS V14.01,2013-09-17 11:59:00,
2013-09-17 08:04:00,38.4,34.3,30.40,NE,45,0.0,0.0,85,0.00,,---,0.00,VWS V14.01,2013-09-17 12:04:00,
2013-09-17 08:09:00,38.8,34.7,30.40,NE,45,0.0,0.0,85,0.00,,---,0.00,VWS V14.01,2013-09-17 12:09:00,
2013-09-17 08:14:00,39.0,34.9,30.40,NE,45,0.0,0.0,85,0.00,,---,0.00,VWS V14.01,2013-09-17 12:14:00,
2013-09-17 08:19:00,39.3,35.2,30.40,NE,45,0.0,0.0,85,0.00,,---,0.00,VWS V14.01,2013-09-17 12:19:00,
2013-09-17 08:24:00,39.7,35.6,30.40,NE,45,0.0,0.0,85,0.00,,---,0.00,VWS V14.01,2013-09-17 12:24:00,
2013-09-17 08:29:00,40.1,36.0,30.40,NE,45,0.0,0.0,85,0.00,,---,0.00,VWS V14.01,2013-09-17 12:29:00,
2013-09-17 08:34:00,40.2,36.1,30.40,NE,45,0.0,0.0,85,0.00,,---,0.00,VWS V14.01,2013-09-17 12:34:00,
2013-09-17 08:39:00,40.8,36.7,30.40,NE,45,0.0,0.0,85,0.00,,---,0.00,VWS V14.01,2013-09-17 12:39:00,
2013-09-17 08:44:00,41.1,37.2,30.40,NE,45,0.0,0.0,86,0.00,,---,0.00,VWS V14.01,2013-09-17 12:44:00,
2013-09-17 08:49:00,41.7,37.8,30.40,NE,45,0.0,0.0,86,0.00,,---,0.00,VWS V14.01,2013-09-17 12:49:00,
2013-09-17 08:54:00,42.0,37.8,30.40,NE,45,0.0,0.0,85,0.00,,---,0.00,VWS V14.01,2013-09-17 12:54:00,
2013-09-17 08:59:00,42.6,38.4,30.40,NE,45,0.0,0.0,85,0.00,,---,0.00,VWS V14.01,2013-09-17 12:59:00,
2013-09-17 09:04:00,43.1,38.9,30.40,NE,45,0.0,0.0,85,0.00,,---,0.00,VWS V14.01,2013-09-17 13:04:00,
2013-09-17 09:09:00,43.5,39.3,30.40,NE,45,0.0,0.0,85,0.00,,---,0.00,VWS V14.01,2013-09-17 13:09:00,
2013-09-17 09:14:00,44.4,40.2,30.40,NE,45,0.0,0.0,85,0.00,,---,0.00,VWS V14.01,2013-09-17 13:14:00,
2013-09-17 09:19:00,44.7,40.5,30.40,NE,45,0.0,0.0,85,0.00,,---,0.00,VWS V14.01,2013-09-17 13:19:00,
2013-09-17 09:24:00,45.1,40.9,30.40,NE,45,0.0,0.0,85,0.00,,---,0.00,VWS V14.01,2013-09-17 13:24:00,
2013-09-17 09:29:00,45.6,41.0,30.40,NE,45,0.0,0.0,84,0.00,,---,0.00,VWS V14.01,2013-09-17 13:29:00,
2013-09-17 09:34:00,46.2,41.6,30.40,NE,45,0.0,0.0,84,0.00,,---,0.00,VWS V14.01,2013-09-17 13:34:00,
2013-09-17 09:39:00,46.5,41.6,30.39,ENE,68,0.0,0.0,83,0.00,,---,0.00,VWS V14.01,2013-09-17 13:39:00,
2013-09-17 09:44:00,47.1,42.2,30.40,ENE,68,0.0,0.0,83,0.00,,---,0.00,VWS V14.01,2013-09-17 13:44:00,
2013-09-17 09:49:00,47.4,42.2,30.40,SSE,158,0.0,0.0,82,0.00,,---,0.00,VWS V14.01,2013-09-17 13:49:00,
2013-09-17 09:54:00,47.8,42.6,30.39,SE,135,0.0,0.0,82,0.00,,---,0.00,VWS V14.01,2013-09-17 13:54:00,
2013-09-17 09:59:00,48.3,42.8,30.39,NE,45,0.0,0.0,81,0.00,,---,0.00,VWS V14.01,2013-09-17 13:59:00,
2013-09-17 10:04:00,48.7,42.8,30.39,ENE,68,0.0,0.0,80,0.00,,---,0.00,VWS V14.01,2013-09-17 14:04:00,
2013-09-17 10:09:00,48.9,42.7,30.39,ENE,68,0.0,0.0,79,0.00,,---,0.00,VWS V14.01,2013-09-17 14:09:00,
2013-09-17 10:14:00,49.6,43.0,30.39,NE,45,0.0,0.0,78,0.00,,---,0.00,VWS V14.01,2013-09-17 14:14:00,
2013-09-17 10:19:00,49.8,43.2,30.39,NE,45,0.0,0.0,78,0.00,,---,0.00,VWS V14.01,2013-09-17 14:19:00,
2013-09-17 10:24:00,50.1,43.2,30.39,NE,45,0.0,0.0,77,0.00,,---,0.00,VWS V14.01,2013-09-17 14:24:00,
2013-09-17 10:29:00,50.5,43.2,30.39,SW,225,0.0,0.0,76,0.00,,---,0.00,VWS V14.01,2013-09-17 14:29:00,
2013-09-17 10:34:00,51.0,43.4,30.39,SW,225,0.0,0.0,75,0.00,,---,0.00,VWS V14.01,2013-09-17 14:34:00,
2013-09-17 10:39:00,51.4,43.8,30.39,SSW,202,0.0,0.0,75,0.00,,---,0.00,VWS V14.01,2013-09-17 14:39:00,
2013-09-17 10:44:00,51.9,43.9,30.39,West,270,0.0,0.0,74,0.00,,---,0.00,VWS V14.01,2013-09-17 14:44:00,
2013-09-17 10:49:00,52.3,44.3,30.39,SSW,202,0.0,0.0,74,0.00,,---,0.00,VWS V14.01,2013-09-17 14:49:00,
2013-09-17 10:54:00,52.5,44.1,30.39,SSW,202,0.0,0.0,73,0.00,,---,0.00,VWS V14.01,2013-09-17 14:54:00,
2013-09-17 10:59:00,53.2,44.4,30.39,WSW,248,0.0,0.0,72,0.00,,---,0.00,VWS V14.01,2013-09-17 14:59:00,
2013-09-17 11:04:00,53.4,44.2,30.39,SW,225,0.0,0.0,71,0.00,,---,0.00,VWS V14.01,2013-09-17 15:04:00,
2013-09-17 11:09:00,53.7,44.5,30.39,South,180,0.0,0.0,71,0.00,,---,0.00,VWS V14.01,2013-09-17 15:09:00,
2013-09-17 11:14:00,54.3,45.1,30.38,West,270,0.0,0.0,71,0.00,,---,0.00,VWS V14.01,2013-09-17 15:14:00,
2013-09-17 11:19:00,54.6,45.4,30.38,South,180,0.0,0.0,71,0.00,,---,0.00,VWS V14.01,2013-09-17 15:19:00,
2013-09-17 11:24:00,55.0,45.4,30.38,SSW,202,0.0,0.0,70,0.00,,---,0.00,VWS V14.01,2013-09-17 15:24:00,
2013-09-17 11:29:00,55.5,45.5,30.38,SW,225,0.0,0.0,69,0.00,,---,0.00,VWS V14.01,2013-09-17 15:29:00,
2013-09-17 11:34:00,55.7,45.7,30.38,South,180,0.0,0.0,69,0.00,,---,0.00,VWS V14.01,2013-09-17 15:34:00,
2013-09-17 11:39:00,56.3,46.3,30.37,SSE,158,0.0,0.0,69,0.00,,---,0.00,VWS V14.01,2013-09-17 15:39:00,
2013-09-17 11:44:00,56.8,46.0,30.37,WNW,292,0.0,0.0,67,0.00,,---,0.00,VWS V14.01,2013-09-17 15:44:00,
2013-09-17 11:49:00,57.0,46.2,30.37,SW,225,2.6,2.6,67,0.00,,---,0.00,VWS V14.01,2013-09-17 15:49:00,
2013-09-17 11:54:00,57.0,45.8,30.37,SW,225,3.8,3.8,66,0.00,,---,0.00,VWS V14.01,2013-09-17 15:54:00,
2013-09-17 11:59:00,57.0,46.2,30.37,NW,315,0.0,0.0,67,0.00,,---,0.00,VWS V14.01,2013-09-17 15:59:00,
2013-09-17 12:04:00,57.0,45.8,30.37,SW,225,1.3,1.3,66,0.00,,---,0.00,VWS V14.01,2013-09-17 16:04:00,
2013-09-17 12:09:00,57.3,46.5,30.36,SSW,202,0.0,0.0,67,0.00,,---,0.00,VWS V14.01,2013-09-17 16:09:00,
2013-09-17 12:14:00,57.9,47.0,30.36,West,270,0.0,2.6,67,0.00,,---,0.00,VWS V14.01,2013-09-17 16:14:00,
2013-09-17 12:19:00,58.1,47.2,30.36,WSW,248,0.0,0.0,67,0.00,,---,0.00,VWS V14.01,2013-09-17 16:19:00,
2013-09-17 12:24:00,58.6,47.3,30.36,NNE,22,0.0,0.0,66,0.00,,---,0.00,VWS V14.01,2013-09-17 16:24:00,
2013-09-17 12:29:00,58.8,47.9,30.36,West,270,0.0,3.3,67,0.00,,---,0.00,VWS V14.01,2013-09-17 16:29:00,
2013-09-17 12:34:00,58.8,47.5,30.36,South,180,0.0,2.6,66,0.00,,---,0.00,VWS V14.01,2013-09-17 16:34:00,
2013-09-17 12:39:00,59.1,47.8,30.36,SE,135,0.0,0.0,66,0.00,,---,0.00,VWS V14.01,2013-09-17 16:39:00,
2013-09-17 12:44:00,59.9,47.7,30.36,SSW,202,3.3,5.1,64,0.00,,---,0.00,VWS V14.01,2013-09-17 16:44:00,
2013-09-17 12:49:00,59.9,48.1,30.36,SW,225,4.9,4.9,65,0.00,,---,0.00,VWS V14.01,2013-09-17 16:49:00,
2013-09-17 12:54:00,59.7,47.9,30.36,SW,225,3.5,3.5,65,0.00,,---,0.00,VWS V14.01,2013-09-17 16:54:00,
2013-09-17 12:59:00,59.9,48.1,30.35,ESE,112,0.0,6.9,65,0.00,,---,0.00,VWS V14.01,2013-09-17 16:59:00,
2013-09-17 13:04:00,60.0,48.2,30.35,South,180,0.0,0.0,65,0.00,,---,0.00,VWS V14.01,2013-09-17 17:04:00,
2013-09-17 13:09:00,60.4,48.6,30.35,SSW,202,6.9,6.9,65,0.00,,---,0.00,VWS V14.01,2013-09-17 17:09:00,
2013-09-17 13:14:00,60.4,47.3,30.34,SSW,202,5.3,6.0,62,0.00,,---,0.00,VWS V14.01,2013-09-17 17:14:00,
2013-09-17 13:19:00,60.4,47.8,30.34,SSE,158,2.9,2.9,63,0.00,,---,0.00,VWS V14.01,2013-09-17 17:19:00,
2013-09-17 13:24:00,60.6,48.0,30.34,South,180,0.0,0.0,63,0.00,,---,0.00,VWS V14.01,2013-09-17 17:24:00,
2013-09-17 13:29:00,60.9,48.2,30.34,ENE,68,0.0,0.0,63,0.00,,---,0.00,VWS V14.01,2013-09-17 17:29:00,
2013-09-17 13:34:00,61.3,48.6,30.34,SSE,158,0.0,0.0,63,0.00,,---,0.00,VWS V14.01,2013-09-17 17:34:00,
2013-09-17 13:39:00,61.7,49.0,30.33,NNE,22,0.0,0.0,63,0.00,,---,0.00,VWS V14.01,2013-09-17 17:39:00,
2013-09-17 13:44:00,61.8,49.1,30.33,SE,135,0.0,2.4,63,0.00,,---,0.00,VWS V14.01,2013-09-17 17:44:00,
2013-09-17 13:49:00,62.2,49.0,30.33,SSE,158,0.8,0.8,62,0.00,,---,0.00,VWS V14.01,2013-09-17 17:49:00,
2013-09-17 13:54:00,62.4,48.8,30.33,West,270,0.0,0.0,61,0.00,,---,0.00,VWS V14.01,2013-09-17 17:54:00,
2013-09-17 13:59:00,62.4,48.8,30.32,NE,45,0.0,0.0,61,0.00,,---,0.00,VWS V14.01,2013-09-17 17:59:00,
2013-09-17 14:04:00,62.7,48.6,30.32,South,180,0.0,0.0,60,0.00,,---,0.00,VWS V14.01,2013-09-17 18:04:00,
2013-09-17 14:09:00,63.1,49.0,30.32,ENE,68,0.0,0.0,60,0.00,,---,0.00,VWS V14.01,2013-09-17 18:09:00,
2013-09-17 14:14:00,63.6,49.0,30.31,SSE,158,0.0,2.0,59,0.00,,---,0.00,VWS V14.01,2013-09-17 18:14:00,
2013-09-17 14:19:00,63.5,48.5,30.31,South,180,0.0,0.0,58,0.00,,---,0.00,VWS V14.01,2013-09-17 18:19:00,
2013-09-17 14:24:00,63.6,49.0,30.31,SE,135,0.0,0.0,59,0.00,,---,0.00,VWS V14.01,2013-09-17 18:24:00,
2013-09-17 14:29:00,64.0,48.9,30.31,ENE,68,0.0,2.0,58,0.00,,---,0.00,VWS V14.01,2013-09-17 18:29:00,
2013-09-17 14:34:00,64.2,48.2,30.31,SSW,202,0.0,0.0,56,0.00,,---,0.00,VWS V14.01,2013-09-17 18:34:00,
2013-09-17 14:39:00,64.2,48.7,30.30,SW,225,2.4,2.4,57,0.00,,---,0.00,VWS V14.01,2013-09-17 18:39:00,
2013-09-17 14:44:00,64.2,48.2,30.30,East,90,0.0,4.0,56,0.00,,---,0.00,VWS V14.01,2013-09-17 18:44:00,
2013-09-17 14:49:00,64.5,49.0,30.30,WSW,248,3.5,3.5,57,0.00,,---,0.00,VWS V14.01,2013-09-17 18:49:00,
2013-09-17 14:54:00,64.7,48.7,30.29,South,180,2.9,2.9,56,0.00,,---,0.00,VWS V14.01,2013-09-17 18:54:00,
2013-09-17 14:59:00,64.7,48.2,30.29,SSE,158,4.4,4.4,55,0.00,,---,0.00,VWS V14.01,2013-09-17 18:59:00,
2013-09-17 15:04:00,64.9,48.8,30.28,SSW,202,0.0,0.0,56,0.00,,---,0.00,VWS V14.01,2013-09-17 19:04:00,
2013-09-17 15:09:00,64.9,48.8,30.28,NE,45,0.0,0.0,56,0.00,,---,0.00,VWS V14.01,2013-09-17 19:09:00,
2013-09-17 15:14:00,65.1,48.5,30.28,SSE,158,0.0,3.3,55,0.00,,---,0.00,VWS V14.01,2013-09-17 19:14:00,
2013-09-17 15:19:00,65.1,48.5,30.29,SSE,158,0.0,0.0,55,0.00,,---,0.00,VWS V14.01,2013-09-17 19:19:00,
2013-09-17 15:24:00,65.1,49.0,30.28,ENE,68,0.0,0.0,56,0.00,,---,0.00,VWS V14.01,2013-09-17 19:24:00,
2013-09-17 15:29:00,65.3,48.7,30.28,SSW,202,5.1,5.1,55,0.00,,---,0.00,VWS V14.01,2013-09-17 19:29:00,
2013-09-17 15:34:00,65.4,48.8,30.28,South,180,0.0,0.0,55,0.00,,---,0.00,VWS V14.01,2013-09-17 19:34:00,
2013-09-17 15:39:00,65.8,48.2,30.28,SSW,202,0.0,0.0,53,0.00,,---,0.00,VWS V14.01,2013-09-17 19:39:00,
2013-09-17 15:44:00,65.8,49.2,30.28,SE,135,0.0,0.0,55,0.00,,---,0.00,VWS V14.01,2013-09-17 19:44:00,
2013-09-17 15:49:00,66.0,49.4,30.28,South,180,2.9,2.9,55,0.00,,---,0.00,VWS V14.01,2013-09-17 19:49:00,
2013-09-17 15:54:00,66.0,48.9,30.27,SSW,202,0.0,0.0,54,0.00,,---,0.00,VWS V14.01,2013-09-17 19:54:00,
2013-09-17 15:59:00,66.5,49.4,30.27,East,90,0.0,0.0,54,0.00,,---,0.00,VWS V14.01,2013-09-17 19:59:00,
2013-09-17 16:04:00,66.7,49.5,30.27,West,270,0.0,0.0,54,0.00,,---,0.00,VWS V14.01,2013-09-17 20:04:00,
2013-09-17 16:09:00,66.9,49.7,30.27,West,270,0.0,0.0,54,0.00,,---,0.00,VWS V14.01,2013-09-17 20:09:00,
2013-09-17 16:14:00,67.1,49.9,30.27,SSE,158,0.0,0.0,54,0.00,,---,0.00,VWS V14.01,2013-09-17 20:14:00,
2013-09-17 16:19:00,67.2,49.5,30.27,SSE,158,1.5,1.5,53,0.00,,---,0.00,VWS V14.01,2013-09-17 20:19:00,
2013-09-17 16:24:00,67.2,49.5,30.26,South,180,0.0,0.0,53,0.00,,---,0.00,VWS V14.01,2013-09-17 20:24:00,
2013-09-17 16:29:00,67.2,49.5,30.26,SSE,158,0.0,0.0,53,0.00,,---,0.00,VWS V14.01,2013-09-17 20:29:00,
2013-09-17 16:34:00,67.4,49.7,30.26,SSE,158,3.8,3.8,53,0.00,,---,0.00,VWS V14.01,2013-09-17 20:34:00,
2013-09-17 16:39:00,67.6,48.8,30.26,SW,225,0.2,0.2,51,0.00,,---,0.00,VWS V14.01,2013-09-17 20:39:00,
2013-09-17 16:44:00,67.8,49.0,30.26,SW,225,0.0,7.1,51,0.00,,---,0.00,VWS V14.01,2013-09-17 20:44:00,
2013-09-17 16:49:00,68.1,49.8,30.25,ESE,112,0.0,0.0,52,0.00,,---,0.00,VWS V14.01,2013-09-17 20:49:00,
2013-09-17 16:54:00,68.1,49.3,30.25,SSE,158,0.0,0.0,51,0.00,,---,0.00,VWS V14.01,2013-09-17 20:54:00,
2013-09-17 16:59:00,68.3,49.5,30.25,SSE,158,0.0,6.4,51,0.00,,---,0.00,VWS V14.01,2013-09-17 20:59:00,
2013-09-17 17:05:00,68.5,49.2,30.25,SSW,202,3.1,3.1,50,0.00,,---,0.00,VWS V14.01,2013-09-17 21:05:00,
2013-09-17 17:10:00,68.5,49.2,30.25,South,180,0.0,3.3,50,0.00,,---,0.00,VWS V14.01,2013-09-17 21:10:00,
2013-09-17 17:15:00,68.7,49.9,30.24,SSE,158,0.0,0.0,51,0.00,,---,0.00,VWS V14.01,2013-09-17 21:15:00,
2013-09-17 17:20:00,69.4,50.0,30.25,SSE,158,3.1,4.9,50,0.00,,---,0.00,VWS V14.01,2013-09-17 21:20:00,
2013-09-17 17:25:00,69.6,49.6,30.24,WSW,248,4.9,4.9,49,0.00,,---,0.00,VWS V14.01,2013-09-17 21:25:00,
2013-09-17 17:30:00,69.6,49.6,30.24,WSW,248,4.6,4.6,49,0.00,,---,0.00,VWS V14.01,2013-09-17 21:30:00,
2013-09-17 17:35:00,70.1,50.6,30.24,SSE,158,0.0,0.0,50,0.00,,---,0.00,VWS V14.01,2013-09-17 21:35:00,
2013-09-17 17:40:00,70.8,50.7,30.24,SSW,202,0.0,0.0,49,0.00,,---,0.00,VWS V14.01,2013-09-17 21:40:00,
2013-09-17 17:45:00,71.4,51.8,30.24,South,180,0.0,0.0,50,0.00,,---,0.00,VWS V14.01,2013-09-17 21:45:00,
2013-09-17 17:50:00,72.5,51.7,30.24,SSW,202,0.0,4.6,48,0.00,,---,0.00,VWS V14.01,2013-09-17 21:50:00,
2013-09-17 17:55:00,73.2,52.4,30.24,SSE,158,0.8,0.8,48,0.00,,---,0.00,VWS V14.01,2013-09-17 21:55:00,
2013-09-17 18:00:00,73.9,53.0,30.24,SSE,158,0.0,0.0,48,0.00,,---,0.00,VWS V14.01,2013-09-17 22:00:00,
2013-09-17 18:05:00,74.8,52.7,30.24,SW,225,0.0,0.0,46,0.00,,---,0.00,VWS V14.01,2013-09-17 22:05:00,
2013-09-17 18:10:00,74.8,53.2,30.24,South,180,0.0,0.0,47,0.00,,---,0.00,VWS V14.01,2013-09-17 22:10:00,
2013-09-17 18:15:00,74.3,51.6,30.24,SSE,158,0.0,0.0,45,0.00,,---,0.00,VWS V14.01,2013-09-17 22:15:00,
2013-09-17 18:20:00,73.2,51.2,30.23,SW,225,0.0,0.0,46,0.00,,---,0.00,VWS V14.01,2013-09-17 22:20:00,
2013-09-17 18:25:00,72.8,50.8,30.23,SSW,202,0.0,0.0,46,0.00,,---,0.00,VWS V14.01,2013-09-17 22:25:00,
2013-09-17 18:30:00,72.5,51.2,30.23,SSW,202,0.0,0.0,47,0.00,,---,0.00,VWS V14.01,2013-09-17 22:30:00,
2013-09-17 18:36:00,73.0,51.6,30.23,SW,225,0.0,0.0,47,0.00,,---,0.00,VWS V14.01,2013-09-17 22:36:00,
2013-09-17 18:41:00,73.2,51.2,30.23,SSE,158,0.0,0.0,46,0.00,,---,0.00,VWS V14.01,2013-09-17 22:41:00,
2013-09-17 18:46:00,73.5,51.5,30.23,SSE,158,0.0,1.3,46,0.00,,---,0.00,VWS V14.01,2013-09-17 22:46:00,
2013-09-17 18:51:00,73.7,51.7,30.23,SSE,158,2.6,2.6,46,0.00,,---,0.00,VWS V14.01,2013-09-17 22:51:00,
2013-09-17 18:56:00,73.7,51.7,30.22,SSE,158,0.0,0.0,46,0.00,,---,0.00,VWS V14.01,2013-09-17 22:56:00,
2013-09-17 19:01:00,73.0,51.0,30.22,SSE,158,0.0,0.0,46,0.00,,---,0.00,VWS V14.01,2013-09-17 23:01:00,
2013-09-17 19:06:00,72.5,51.2,30.22,SSE,158,0.0,0.0,47,0.00,,---,0.00,VWS V14.01,2013-09-17 23:06:00,
2013-09-17 19:11:00,72.1,51.3,30.21,SSE,158,0.0,0.0,48,0.00,,---,0.00,VWS V14.01,2013-09-17 23:11:00,
2013-09-17 19:16:00,71.4,50.7,30.21,SSE,158,0.0,0.0,48,0.00,,---,0.00,VWS V14.01,2013-09-17 23:16:00,
2013-09-17 19:21:00,70.3,50.8,30.21,SSE,158,0.0,0.0,50,0.00,,---,0.00,VWS V14.01,2013-09-17 23:21:00,
2013-09-17 19:26:00,69.6,50.2,30.21,SSE,158,0.0,0.0,50,0.00,,---,0.00,VWS V14.01,2013-09-17 23:26:00,
2013-09-17 19:32:00,68.1,49.3,30.21,South,180,0.0,0.0,51,0.00,,---,0.00,VWS V14.01,2013-09-17 23:32:00,
2013-09-17 19:37:00,66.9,48.2,30.21,South,180,0.0,1.7,51,0.00,,---,0.00,VWS V14.01,2013-09-17 23:37:00,
2013-09-17 19:43:00,66.2,48.1,30.21,South,180,0.0,0.0,52,0.00,,---,0.00,VWS V14.01,2013-09-17 23:43:00,
2013-09-17 19:48:00,65.3,47.8,30.21,South,180,0.0,0.0,53,0.00,,---,0.00,VWS V14.01,2013-09-17 23:48:00,
2013-09-17 19:53:00,64.9,47.4,30.21,SSE,158,0.0,0.0,53,0.00,,---,0.00,VWS V14.01,2013-09-17 23:53:00,
2013-09-17 19:58:00,64.2,46.7,30.20,SSE,158,0.0,0.0,53,0.00,,---,0.00,VWS V14.01,2013-09-17 23:58:00,
2013-09-17 20:03:00,63.5,46.6,30.20,SSE,158,0.0,0.0,54,0.00,,---,0.00,VWS V14.01,2013-09-18 00:03:00,
2013-09-17 20:08:00,63.1,46.2,30.20,South,180,0.0,0.0,54,0.00,,---,0.00,VWS V14.01,2013-09-18 00:08:00,
2013-09-17 20:13:00,62.7,45.3,30.21,South,180,0.8,0.8,53,0.00,,---,0.00,VWS V14.01,2013-09-18 00:13:00,
2013-09-17 20:18:00,62.2,45.4,30.21,South,180,0.0,0.0,54,0.00,,---,0.00,VWS V14.01,2013-09-18 00:18:00,
2013-09-17 20:23:00,61.8,45.0,30.21,SSE,158,0.0,0.0,54,0.00,,---,0.00,VWS V14.01,2013-09-18 00:23:00,
2013-09-17 20:28:00,61.5,44.7,30.20,SSE,158,0.0,0.0,54,0.00,,---,0.00,VWS V14.01,2013-09-18 00:28:00,
2013-09-17 20:33:00,61.1,44.8,30.20,SSE,158,0.0,0.0,55,0.00,,---,0.00,VWS V14.01,2013-09-18 00:33:00,
2013-09-17 20:38:00,60.9,44.6,30.20,SSE,158,0.0,0.0,55,0.00,,---,0.00,VWS V14.01,2013-09-18 00:38:00,
2013-09-17 20:43:00,60.6,44.4,30.20,SSE,158,0.0,0.0,55,0.00,,---,0.00,VWS V14.01,2013-09-18 00:43:00,
2013-09-17 20:48:00,60.4,44.7,30.20,SSE,158,0.0,0.0,56,0.00,,---,0.00,VWS V14.01,2013-09-18 00:48:00,
2013-09-17 20:53:00,60.0,44.3,30.21,SSE,158,0.0,0.0,56,0.00,,---,0.00,VWS V14.01,2013-09-18 00:53:00,
2013-09-17 20:58:00,59.7,44.0,30.21,South,180,0.0,0.0,56,0.00,,---,0.00,VWS V14.01,2013-09-18 00:58:00,
2013-09-17 21:03:00,59.5,44.3,30.21,South,180,0.0,0.0,57,0.00,,---,0.00,VWS V14.01,2013-09-18 01:03:00,
2013-09-17 21:08:00,59.1,43.9,30.21,SSE,158,0.0,0.0,57,0.00,,---,0.00,VWS V14.01,2013-09-18 01:08:00,
2013-09-17 21:13:00,58.8,43.6,30.21,South,180,0.0,0.0,57,0.00,,---,0.00,VWS V14.01,2013-09-18 01:13:00,
2013-09-17 21:18:00,58.8,44.1,30.20,SSE,158,0.0,0.0,58,0.00,,---,0.00,VWS V14.01,2013-09-18 01:18:00,
2013-09-17 21:23:00,58.6,43.9,30.21,SSE,158,0.0,0.0,58,0.00,,---,0.00,VWS V14.01,2013-09-18 01:23:00,
2013-09-17 21:28:00,58.4,43.2,30.20,South,180,0.0,0.0,57,0.00,,---,0.00,VWS V14.01,2013-09-18 01:28:00,
2013-09-17 21:33:00,58.2,43.5,30.20,SSW,202,0.0,0.0,58,0.00,,---,0.00,VWS V14.01,2013-09-18 01:33:00,
2013-09-17 21:38:00,57.9,43.2,30.20,South,180,0.0,0.0,58,0.00,,---,0.00,VWS V14.01,2013-09-18 01:38:00,
2013-09-17 21:43:00,57.9,43.2,30.20,South,180,0.0,0.0,58,0.00,,---,0.00,VWS V14.01,2013-09-18 01:43:00,
2013-09-17 21:48:00,57.7,43.0,30.20,South,180,0.0,0.0,58,0.00,,---,0.00,VWS V14.01,2013-09-18 01:48:00,
2013-09-17 21:53:00,57.5,42.8,30.20,South,180,0.0,0.0,58,0.00,,---,0.00,VWS V14.01,2013-09-18 01:53:00,
2013-09-17 21:58:00,57.3,42.7,30.20,South,180,0.0,0.0,58,0.00,,---,0.00,VWS V14.01,2013-09-18 01:58:00,
2013-09-17 22:03:00,57.0,42.8,30.20,South,180,0.0,0.0,59,0.00,,---,0.00,VWS V14.01,2013-09-18 02:03:00,
2013-09-17 22:08:00,57.0,42.8,30.20,South,180,0.0,0.0,59,0.00,,---,0.00,VWS V14.01,2013-09-18 02:08:00,
2013-09-17 22:13:00,56.8,42.6,30.20,South,180,0.0,0.0,59,0.00,,---,0.00,VWS V14.01,2013-09-18 02:13:00,
2013-09-17 22:18:00,56.4,42.7,30.20,South,180,0.0,0.0,60,0.00,,---,0.00,VWS V14.01,2013-09-18 02:18:00,
2013-09-17 22:23:00,56.3,42.6,30.20,South,180,0.0,0.0,60,0.00,,---,0.00,VWS V14.01,2013-09-18 02:23:00,
2013-09-17 22:28:00,56.1,42.4,30.20,South,180,0.0,0.0,60,0.00,,---,0.00,VWS V14.01,2013-09-18 02:28:00,
2013-09-17 22:33:00,55.9,42.7,30.20,South,180,0.0,0.0,61,0.00,,---,0.00,VWS V14.01,2013-09-18 02:33:00,
2013-09-17 22:38:00,55.5,42.3,30.20,SSE,158,0.0,0.0,61,0.00,,---,0.00,VWS V14.01,2013-09-18 02:38:00,
2013-09-17 22:43:00,55.4,42.2,30.20,SSE,158,0.0,0.0,61,0.00,,---,0.00,VWS V14.01,2013-09-18 02:43:00,
2013-09-17 22:48:00,55.2,42.4,30.20,South,180,0.0,0.0,62,0.00,,---,0.00,VWS V14.01,2013-09-18 02:48:00,
2013-09-17 22:53:00,55.0,42.2,30.20,SSE,158,0.0,0.0,62,0.00,,---,0.00,VWS V14.01,2013-09-18 02:53:00,
2013-09-17 22:58:00,54.8,42.0,30.20,SSE,158,0.0,0.0,62,0.00,,---,0.00,VWS V14.01,2013-09-18 02:58:00,
2013-09-17 23:03:00,54.5,42.2,30.20,SSE,158,0.0,0.0,63,0.00,,---,0.00,VWS V14.01,2013-09-18 03:03:00,
2013-09-17 23:08:00,54.1,41.8,30.20,SSE,158,0.0,0.0,63,0.00,,---,0.00,VWS V14.01,2013-09-18 03:08:00,
2013-09-17 23:13:00,53.9,41.6,30.20,SSE,158,0.0,0.0,63,0.00,,---,0.00,VWS V14.01,2013-09-18 03:13:00,
2013-09-17 23:18:00,53.7,41.8,30.20,SSE,158,0.0,0.0,64,0.00,,---,0.00,VWS V14.01,2013-09-18 03:18:00,
2013-09-17 23:23:00,53.7,41.8,30.20,SSE,158,0.0,0.0,64,0.00,,---,0.00,VWS V14.01,2013-09-18 03:23:00,
2013-09-17 23:28:00,53.4,41.5,30.20,SSE,158,0.0,0.0,64,0.00,,---,0.00,VWS V14.01,2013-09-18 03:28:00,
2013-09-17 23:33:00,53.4,41.9,30.20,SSE,158,0.0,0.0,65,0.00,,---,0.00,VWS V14.01,2013-09-18 03:33:00,
2013-09-17 23:38:00,53.4,41.9,30.20,SSE,158,0.0,0.0,65,0.00,,---,0.00,VWS V14.01,2013-09-18 03:38:00,
2013-09-17 23:43:00,53.2,41.8,30.20,SSE,158,0.0,0.0,65,0.00,,---,0.00,VWS V14.01,2013-09-18 03:43:00,
2013-09-17 23:48:00,53.2,41.8,30.20,SSE,158,0.0,0.0,65,0.00,,---,0.00,VWS V14.01,2013-09-18 03:48:00,
2013-09-17 23:53:00,53.2,41.8,30.20,South,180,0.0,0.0,65,0.00,,---,0.00,VWS V14.01,2013-09-18 03:53:00,
2013-09-17 23:58:00,52.8,41.8,30.20,South,180,0.0,0.0,66,0.00,,---,0.00,VWS V14.01,2013-09-18 03:58:00,